Regional Weather Roundup
Issued by NWS Newport/Morehead, NC

Current Version | Previous Version | Text Only | Print | Product List | Glossary On
Versions: 1 2 3 4 5 6 7 8 9 10 11 12 13 14 15 16 17 18 19 20 21 22 23 24 25 26 27 28 29 30 31 32 33 34 35 36 37 38 39 40 41 42 43 44 45 46 47 48 49 50
000
ASUS42 KMHX 292325
RWRMHX
WEATHER ROUNDUP FOR EASTERN NORTH CAROLINA
NATIONAL WEATHER SERVICE NEWPORT/MOREHEAD CITY NC
700 PM EDT SAT AUG 29 2015

NOTE: "FAIR" INDICATES FEW OR NO CLOUDS BELOW 12,000 FEET
WITH NO SIGNIFICANT WEATHER AND/OR OBSTRUCTIONS TO VISIBILITY

NCZ015>017-031-032-045>047-102-103-300000-
NORTH COAST

CITY           SKY/WX    TMP DP  RH WIND       PRES   REMARKS
EDENTON        CLOUDY    76  65  69 E3        30.13S
ELIZABETH CITY CLOUDY    76  64  66 NE7       30.13F
KITTY HAWK     MOCLDY    77  65  66 NE7       30.11S
MANTEO         MOCLDY    76  66  71 NE9       30.12F

$$

NCZ045>047-081-094-103-104-300000-
CENTRAL COAST

CITY           SKY/WX    TMP DP  RH WIND       PRES   REMARKS
FRISCO         PTCLDY    77  71  82 NE9       30.09F
SWANQUARTER    NOT AVBL

$$

NCZ095-097-098-100-101-300000-
SOUTHERN COAST

CITY           SKY/WX    TMP DP  RH WIND       PRES   REMARKS
BEAUFORT       PTCLDY    79  67  66 N9        30.10S
CEDAR ISLAND   NOT AVBL
JACKSONVILLE   CLEAR     82  60  47 NE7       30.10F
PINEY ISLAND   PTCLDY   N/A N/A N/A N9        30.11R
WILMINGTON     MOCLDY    81  66  60 N6        30.10F


$$

NCZ011>013-027>030-043-044-078>080-089-090>093-098-300000-
COASTAL PLAIN

CITY           SKY/WX    TMP DP  RH WIND       PRES   REMARKS
AHOSKIE        MOCLDY    76  62  63 CALM      30.13S
CLINTON        CLEAR     77  63  61 CALM      30.12S
ELIZABETHTOWN  PTCLDY    78  63  60 CALM      30.11S
GOLDSBORO      CLEAR     82  61  49 E5        30.10F
GREENVILLE     PTCLDY    79  63  57 E5        30.13S
HAVELOCK       CLEAR     81  61  50 NE9       30.12S
KENANSVILLE      N/A     77  64  63 CALM      30.12F
KINSTON        CLEAR     81  59  47 E5        30.12S
NEW BERN       PTCLDY    80  62  54 NE9       30.13S
RICHLANDS      CLEAR     79  61  53 E6        30.12S
ROCKY MOUNT    PTCLDY    82  56  40 NE3       30.12S
WASHINGTON     MOCLDY    76  64  66 NE3       30.12S
WHITEVILLE     MOCLDY    79  64  58 CALM      30.11S

$$

AMZ130-135-150-152-154-156-158-170-250-252-270-ANZ085-086-088-633-658-670-300000-
MARINE OBSERVATIONS

STATION/POSITION TIME  TEMP    WIND        PRES    WAVE   SWELL
                       AIR SEA DIR/SP/G            HT/PER HT/PER
                 (UTC) (F)     (DEG/KT/KT) (MB)    (FT/S) (FT/S)
CHESAPEAKE LIGHT 2300   76      70/ 11/ 12 1020.9
64 E VA BEACH    2250   77 78   60/ 14/ 16 1019.3    4/11   3/11
DUCK             NOT AVBL
2 E DUCK         2211      78                N/A     4/11   3/11
OREGON INLET     NOT AVBL
13E OREGON INLT  2300      78                N/A     5/11   2/11
HATTERAS CG      NOT AVBL
DIAMOND BUOY     2250   78 82   30/ 19/ 21 1018.2    5/10   3/10
CAPE LOOKOUT     2300   79      10/ 11/ 15 1018.9
BEAUFORT LAB     NOT AVBL
30 SE NEW RVR IN 2208   81 82   60/ 14/ 19 1019.1
30 SE NEW RVR IN 2225      82                N/A     5/11   2/11
27 SE WRIGHTSVLE 2300   78 82   70/ 10/ 12   N/A
5 SE WRIGHTSVLE  2208   82 82   60/  8/ 12 1019.3
225 S CAPE HAT   2250   83 84  210/  2/  4 1019.9    4/11   5/11
41 SE CHARLESTON 2250   80 85   50/ 14/ 16 1018.3    4/11   3/11

$$


USA.gov is the U.S. government's official web portal to all federal, state and local government web resources and services.